Moncks Corner, SC

7:41 PM EDT on April 29, 2017 (GMT -0400)
Moncks Corner

Weather History for KMKS - November, 2012

Change the Weather History Date:

Tuesday, November 20, 2012

  Actual Average (KCHS) Record (KCHS)
Temperature  
Mean Temperature 55 °F -  
Max Temperature 64 °F 68 °F 82 °F (1942)
Min Temperature 46 °F 46 °F 25 °F (1951)
Degree Days  
Heating Degree Days 10    
Growing Degree Days 5 (Base 50)    
Moisture  
Dew Point 48 °F    
Average Humidity 81    
Maximum Humidity 94    
Minimum Humidity 59    
Precipitation  
Precipitation 0.00 in - - ()
Sea Level Pressure  
Sea Level Pressure 30.09 in    
Wind  
Wind Speed 5 mph (North)    
Max Wind Speed 9 mph    
Max Gust Speed -    
Visibility 8 miles    
Events      
Averages and records for this station are not official NWS values.
T = Trace of Precipitation, MM = Missing Value Source: NWS Daily Summary

Daily Weather History Graph

Daily Weather History Graph

Search for Another Location

Airport or City:

Trip Planner

Search our weather history database for the weather conditions in past years. The results will help you decide how hot, cold, wet, or windy it might be!

Date:

Astronomy

Nov. 20, 2012 Rise Set
Actual Time 6:56 AM EST 5:15 PM EST
Civil Twilight 6:29 AM EST 5:42 PM EST
Nautical Twilight 5:59 AM EST 6:12 PM EST
Astronomical Twilight 5:29 AM EST 6:41 PM EST
Moon 12:40 PM EST (11/20) No Moon Set
Length of Visible Light 11h 12m
Length of Day
10h 19m
Waxing Crescent, 51% of the Moon is Illuminated
Nov 20
Waxing Crescent
Nov 28
Full
Dec 6
Last Quarter
Dec 13
New
Dec 20
First Quarter

Hourly Weather History & Observations

Time (EST) Temp. Dew Point Humidity Pressure Visibility Wind Dir Wind Speed Gust Speed Precip Events Conditions
12:15 AM 55.4 °F 48.2 °F 77% 30.11 in 10.0 mi North 8.1 mph - N/A   Clear
12:35 AM 55.4 °F 48.2 °F 77% 30.11 in 7.0 mi North 8.1 mph - N/A   Clear
12:55 AM 55.4 °F 48.2 °F 77% 30.11 in 10.0 mi North 8.1 mph - N/A   Clear
1:15 AM 53.6 °F 46.4 °F 77% 30.11 in 10.0 mi North 8.1 mph - N/A   Clear
1:35 AM 53.6 °F 46.4 °F 77% 30.11 in 7.0 mi North 8.1 mph - N/A   Clear
2:15 AM 53.6 °F 46.4 °F 77% 30.10 in 10.0 mi North 6.9 mph - N/A   Clear
2:55 AM 51.8 °F 46.4 °F 82% 30.10 in 10.0 mi North 8.1 mph - N/A   Clear
3:15 AM 51.8 °F 46.4 °F 82% 30.11 in 10.0 mi North 5.8 mph - N/A   Clear
3:35 AM 51.8 °F 46.4 °F 82% 30.10 in 10.0 mi North 9.2 mph - N/A   Clear
7:15 AM 50.0 °F 46.4 °F 87% 30.13 in 7.0 mi NNE 5.8 mph - N/A   Overcast
7:35 AM 50.0 °F 46.4 °F 87% 30.13 in 7.0 mi NNE 3.5 mph - N/A   Overcast
8:15 AM 50.0 °F 46.4 °F 87% 30.14 in 7.0 mi NNE 5.8 mph - N/A   Overcast
8:35 AM 50.0 °F 46.4 °F 87% 30.14 in 7.0 mi NNE 5.8 mph - N/A   Overcast
8:55 AM 50.0 °F 46.4 °F 87% 30.15 in 5.0 mi North 4.6 mph - N/A   Overcast
9:15 AM 50.0 °F 48.2 °F 94% 30.15 in 7.0 mi North 4.6 mph - N/A   Overcast
9:35 AM 51.8 °F 48.2 °F 88% 30.15 in 7.0 mi North 6.9 mph - N/A   Overcast
9:55 AM 51.8 °F 48.2 °F 88% 30.15 in 7.0 mi NNE 3.5 mph - N/A   Overcast
10:15 AM 51.8 °F 48.2 °F 88% 30.14 in 5.0 mi NNE 5.8 mph - N/A   Haze
10:55 AM 53.6 °F 48.2 °F 82% 30.14 in 7.0 mi North 5.8 mph - N/A   Unknown
11:15 AM 53.6 °F 48.2 °F 82% 30.14 in 7.0 mi North 8.1 mph - N/A   Unknown
11:55 AM 53.6 °F 48.2 °F 82% 30.12 in 5.0 mi NNW 4.6 mph - N/A   Haze
12:15 PM 55.4 °F 48.2 °F 77% 30.10 in 7.0 mi North 8.1 mph - N/A   Unknown
12:35 PM 55.4 °F 50.0 °F 82% 30.09 in 7.0 mi NNW 3.5 mph - N/A   Unknown
1:15 PM 57.2 °F 50.0 °F 77% 30.07 in 7.0 mi NNW 5.8 mph - N/A   Unknown
1:35 PM 60.8 °F 50.0 °F 68% 30.07 in 10.0 mi NNW 4.6 mph - N/A   Unknown
1:55 PM 60.8 °F 50.0 °F 68% 30.06 in 10.0 mi North 4.6 mph - N/A   Unknown
2:15 PM 62.6 °F 51.8 °F 68% 30.05 in 7.0 mi NNW 5.8 mph - N/A   Unknown
2:35 PM 64.4 °F 50.0 °F 59% 30.04 in 10.0 mi NW 3.5 mph - N/A   Unknown
2:55 PM 62.6 °F 50.0 °F 63% 30.04 in 10.0 mi NNW 5.8 mph - N/A   Unknown
3:15 PM 62.6 °F 50.0 °F 63% 30.04 in 7.0 mi NNW 5.8 mph - N/A   Unknown
3:35 PM 62.6 °F 50.0 °F 63% 30.04 in 10.0 mi NNW 4.6 mph - N/A   Unknown
3:55 PM 62.6 °F 50.0 °F 63% 30.04 in 7.0 mi NNW 4.6 mph - N/A   Unknown
4:15 PM 62.6 °F 50.0 °F 63% 30.04 in 10.0 mi NNW 3.5 mph - N/A   Unknown
4:35 PM 60.8 °F 48.2 °F 63% 30.04 in 10.0 mi NNW 3.5 mph - N/A   Unknown
5:15 PM 59.0 °F 50.0 °F 72% 30.04 in 7.0 mi Calm Calm - N/A   Unknown
5:35 PM 59.0 °F 50.0 °F 72% 30.04 in 7.0 mi NNE 3.5 mph - N/A   Unknown
5:55 PM 59.0 °F 50.0 °F 72% 30.05 in 10.0 mi Calm Calm - N/A   Unknown
6:15 PM 57.2 °F 50.0 °F 77% 30.06 in 10.0 mi Calm Calm - N/A   Unknown
6:35 PM 57.2 °F 50.0 °F 77% 30.06 in 10.0 mi NNE 3.5 mph - N/A   Unknown
6:55 PM 53.6 °F 50.0 °F 88% 30.07 in 10.0 mi Calm Calm - N/A   Unknown
7:15 PM 51.8 °F 48.2 °F 88% 30.07 in 10.0 mi Calm Calm - N/A   Unknown
7:35 PM 51.8 °F 48.2 °F 88% 30.07 in 7.0 mi Calm Calm - N/A   Unknown
7:55 PM 50.0 °F 48.2 °F 94% 30.08 in 7.0 mi Calm Calm - N/A   Unknown
8:15 PM 50.0 °F 48.2 °F 94% 30.08 in 7.0 mi Calm Calm - N/A   Unknown
8:35 PM 50.0 °F 48.2 °F 94% 30.08 in 7.0 mi Calm Calm - N/A   Unknown
8:55 PM 50.0 °F 48.2 °F 94% 30.08 in 7.0 mi Calm Calm - N/A   Unknown
9:15 PM 50.0 °F 48.2 °F 94% 30.08 in 7.0 mi Calm Calm - N/A   Unknown
9:35 PM 48.2 °F 46.4 °F 93% 30.08 in 7.0 mi Calm Calm - N/A   Unknown
9:55 PM 48.2 °F 46.4 °F 93% 30.08 in 5.0 mi Calm Calm - N/A   Mist
10:15 PM 48.2 °F 46.4 °F 93% 30.08 in 5.0 mi Calm Calm - N/A   Mist
10:35 PM 48.2 °F 46.4 °F 93% 30.08 in 5.0 mi Calm Calm - N/A   Mist
11:15 PM 46.4 °F 44.6 °F 93% 30.08 in 5.0 mi Calm Calm - N/A   Mist
11:35 PM 46.4 °F 44.6 °F 93% 30.08 in 4.0 mi Calm Calm - N/A   Clear
11:55 PM 46.4 °F 44.6 °F 93% 30.08 in 5.0 mi Calm Calm - N/A   Clear